Crestview, FL

7:31 PM CDT on April 22, 2018 (GMT -0500)
Sikes

Weather History for KCEW - December, 2011

Change the Weather History Date:

Saturday, December 24, 2011

  Actual Average Record
Temperature  
Mean Temperature 56 °F -  
Max Temperature 66 °F 59 °F 81 °F (2015)
Min Temperature 45 °F 37 °F 9 °F (1989)
Degree Days  
Heating Degree Days 10    
Growing Degree Days 6 (Base 50)    
Moisture  
Dew Point 44 °F    
Average Humidity 75    
Maximum Humidity 90    
Minimum Humidity 45    
Precipitation  
Precipitation 0.01 in - - ()
Sea Level Pressure  
Sea Level Pressure 30.32 in    
Wind  
Wind Speed 5 mph (NNE)    
Max Wind Speed 9 mph    
Max Gust Speed 17 mph    
Visibility 9 miles    
Events      
Averages and records for this station are not official NWS values.
T = Trace of Precipitation, MM = Missing Value Source: NWS Daily Summary

Daily Weather History Graph

Daily Weather History Graph

Search for Another Location

Airport or City:

Astronomy

Dec. 24, 2011 Rise Set
Actual Time 6:40 AM CST 4:50 PM CST
Civil Twilight 6:14 AM CST 5:16 PM CST
Nautical Twilight 5:44 AM CST 5:47 PM CST
Astronomical Twilight 5:14 AM CST 6:16 PM CST
Moon 6:28 AM CST (12/24) 5:02 PM CST (12/24)
Length of Visible Light 11h 02m
Length of Day
10h 09m
New Moon, 0% of the Moon is Illuminated
Dec 24
New Moon
Dec 24
New
Jan 1
First Quarter
Jan 9
Full
Jan 16
Last Quarter

Hourly Weather History & Observations

Time (CST) Temp. Windchill Dew Point Humidity Pressure Visibility Wind Dir Wind Speed Gust Speed Precip Events Conditions
12:53 AM 46.0 °F 43.9 °F 43.0 °F 89% 30.30 in 8.0 mi North 4.6 mph - N/A   Clear
1:35 AM 46.4 °F 44.3 °F 42.8 °F 87% 30.30 in 6.0 mi NNE 4.6 mph - 0.01 in   Mostly Cloudy
1:53 AM 46.0 °F 41.4 °F 43.0 °F 89% 30.30 in 7.0 mi NNE 9.2 mph 17.3 mph 0.01 in   Overcast
2:53 AM 46.9 °F - 43.0 °F 86% 30.30 in 7.0 mi NNE 6.9 mph - N/A   Overcast
3:53 AM 46.9 °F - 43.0 °F 86% 30.32 in 7.0 mi North 6.9 mph - N/A   Overcast
4:53 AM 46.9 °F - 44.1 °F 90% 30.32 in 7.0 mi NNE 8.1 mph - N/A   Overcast
5:20 AM 46.4 °F 42.9 °F 42.8 °F 87% 30.33 in 7.0 mi North 6.9 mph - N/A   Overcast
5:42 AM 46.4 °F 43.5 °F 42.8 °F 87% 30.33 in 7.0 mi NNE 5.8 mph - N/A   Scattered Clouds
5:53 AM 46.0 °F 42.5 °F 42.1 °F 86% 30.32 in 7.0 mi NNE 6.9 mph - N/A   Clear
6:53 AM 45.0 °F 43.5 °F 42.1 °F 90% 30.35 in 5.0 mi North 3.5 mph - N/A   Clear
7:53 AM 46.9 °F - 42.1 °F 83% 30.38 in 7.0 mi Variable 6.9 mph - N/A   Clear
8:53 AM 50.0 °F - 42.1 °F 74% 30.39 in 9.0 mi NE 9.2 mph 16.1 mph N/A   Clear
9:53 AM 54.0 °F - 42.1 °F 64% 30.40 in 10.0 mi NE 8.1 mph - N/A   Clear
10:53 AM 57.9 °F - 43.0 °F 58% 30.38 in 10.0 mi Variable 6.9 mph - N/A   Clear
11:53 AM 61.0 °F - 44.1 °F 54% 30.33 in 10.0 mi NNE 5.8 mph - N/A   Clear
12:53 PM 64.0 °F - 43.0 °F 46% 30.30 in 10.0 mi Variable 5.8 mph - N/A   Clear
1:53 PM 66.0 °F - 44.1 °F 45% 30.30 in 10.0 mi NE 6.9 mph - N/A   Clear
2:53 PM 66.0 °F - 44.1 °F 45% 30.28 in 10.0 mi NE 5.8 mph - N/A   Clear
3:53 PM 64.9 °F - 45.0 °F 48% 30.28 in 10.0 mi NNE 5.8 mph - N/A   Clear
4:53 PM 59.0 °F - 46.0 °F 62% 30.28 in 10.0 mi Calm Calm - N/A   Clear
5:53 PM 53.1 °F - 48.0 °F 83% 30.30 in 10.0 mi Calm Calm - N/A   Clear
6:53 PM 51.1 °F - 46.9 °F 86% 30.32 in 10.0 mi Calm Calm - N/A   Clear
7:53 PM 50.0 °F - 46.0 °F 86% 30.32 in 10.0 mi Calm Calm - N/A   Clear
8:53 PM 50.0 °F - 46.0 °F 86% 30.32 in 10.0 mi NNE 3.5 mph - N/A   Clear
9:53 PM 52.0 °F - 45.0 °F 77% 30.32 in 10.0 mi NE 4.6 mph - N/A   Clear
10:53 PM 53.1 °F - 46.0 °F 77% 30.33 in 10.0 mi NNE 3.5 mph - N/A   Mostly Cloudy
11:44 PM 53.6 °F - 46.4 °F 77% 30.33 in 10.0 mi NNE 3.5 mph - N/A   Overcast
11:53 PM 54.0 °F - 46.0 °F 75% 30.32 in 10.0 mi Calm Calm - N/A   Overcast